QPF
0.03 0.03 0.03 0.07 0.08 0.11 0.10 0.05 0.05 0.05 0.05 0.05 0.05 0.05 0.05 0.06 0.08 0.11 0.12 0.14 0.16 0.18 0.18 0.14 0.08 0.06 0.04 0.03 0.02 0.02 0.02 0.01 0.02 0.02 0.02 0.02 0.02 0.01 0.01 0.01 0.01 0.01 0.00
0.03 0.05 0.07 0.09 0.14 0.14 0.12 0.08 0.07 0.08 0.08 0.09 0.10 0.13 0.13 0.14 0.15 0.21 0.26 0.31 0.32 0.30 0.24 0.17 0.12 0.07 0.05 0.03 0.01 0.01 0.01 0.01 0.01 0.01 0.01 0.01 0.01 0.00 0.00 0.00 0.00 0.00 0.00
0.03 0.07 0.12 0.07 0.08 0.13 0.12 0.11 0.12 0.13 0.16 0.20 0.19 0.20 0.22 0.22 0.24 0.27 0.31 0.31 0.30 0.26 0.23 0.19 0.15 0.11 0.08 0.05 0.03 0.02 0.01 0.01 0.01 0.01 0.01 0.01 0.01 0.00 0.00 0.00 0.00 0.00 0.00
0.02 0.04 0.12 0.08 0.08 0.16 0.18 0.16 0.18 0.22 0.24 0.29 0.32 0.29 0.31 0.37 0.38 0.35 0.33 0.28 0.24 0.21 0.19 0.20 0.19 0.14 0.09 0.05 0.04 0.03 0.02 0.01 0.01 0.01 0.01 0.01 0.01 0.01 0.00 0.00 0.00 0.00 0.00
0.01 0.02 0.04 0.06 0.07 0.11 0.18 0.20 0.17 0.21 0.29 0.35 0.38 0.40 0.39 0.36 0.34 0.32 0.33 0.29 0.25 0.22 0.20 0.18 0.16 0.12 0.08 0.05 0.03 0.03 0.02 0.02 0.02 0.01 0.01 0.01 0.01 0.01 0.01 0.01 0.00 0.00 0.00
0.03 0.03 0.04 0.05 0.07 0.08 0.12 0.16 0.17 0.20 0.23 0.30 0.35 0.35 0.36 0.33 0.32 0.32 0.31 0.29 0.28 0.26 0.21 0.16 0.13 0.10 0.07 0.04 0.03 0.01 0.01 0.01 0.01 0.01 0.01 0.01 0.01 0.02 0.02 0.02 0.01 0.01 0.01
0.05 0.06 0.06 0.07 0.09 0.09 0.10 0.14 0.19 0.23 0.25 0.27 0.30 0.30 0.29 0.28 0.29 0.28 0.25 0.24 0.22 0.17 0.14 0.11 0.08 0.06 0.04 0.03 0.01 0.01 0.01 0.01 0.01 0.01 0.01 0.01 0.01 0.01 0.01 0.01 0.01 0.01 0.01
0.06 0.07 0.07 0.07 0.08 0.08 0.09 0.08 0.09 0.15 0.20 0.22 0.24 0.28 0.31 0.31 0.31 0.30 0.26 0.21 0.18 0.16 0.13 0.11 0.09 0.07 0.05 0.04 0.02 0.01 0.01 0.01 0.01 0.01 0.01 0.01 0.01 0.00 0.00 0.00 0.00 0.00 0.00
0.09 0.09 0.08 0.08 0.08 0.07 0.06 0.06 0.06 0.07 0.12 0.16 0.17 0.19 0.22 0.22 0.23 0.22 0.20 0.18 0.16 0.15 0.15 0.14 0.11 0.09 0.07 0.06 0.04 0.03 0.03 0.02 0.02 0.02 0.01 0.01 0.01 0.00 0.00 0.00 0.00 0.00 0.00
0.06 0.06 0.06 0.05 0.05 0.04 0.03 0.04 0.04 0.05 0.06 0.08 0.11 0.13 0.14 0.15 0.15 0.15 0.14 0.12 0.11 0.10 0.10 0.09 0.07 0.05 0.04 0.03 0.03 0.02 0.02 0.02 0.01 0.01 0.01 0.01 0.00 0.00 0.00 0.00 0.00 0.00 0.00
0.04 0.03 0.04 0.04 0.04 0.03 0.02 0.03 0.03 0.03 0.05 0.06 0.07 0.08 0.08 0.09 0.09 0.08 0.08 0.07 0.06 0.06 0.06 0.05 0.04 0.03 0.02 0.01 0.01 0.00 0.00 0.00 0.00 0.00 0.00 0.00 0.00 0.00 0.00 0.00 0.00 0.00 0.00
0.05 0.04 0.03 0.03 0.03 0.03 0.04 0.05 0.04 0.04 0.05 0.05 0.05 0.05 0.06 0.05 0.05 0.05 0.06 0.05 0.03 0.03 0.03 0.03 0.02 0.01 0.01 0.00 0.00 0.00 0.00 0.00 0.00 0.00 0.00 0.00 0.00 0.00 0.00 0.00 0.00 0.00 0.00
0.09 0.07 0.06 0.05 0.05 0.05 0.05 0.05 0.04 0.03 0.03 0.03 0.03 0.03 0.03 0.03 0.02 0.02 0.01 0.01 0.01 0.01 0.01 0.01 0.01 0.01 0.00 0.00 0.00 0.00 0.00 0.00 0.00 0.00 0.00 0.00 0.00 0.00 0.00 0.00 0.00 0.00 0.00
0.17 0.15 0.12 0.10 0.07 0.05 0.05 0.05 0.04 0.03 0.02 0.02 0.02 0.01 0.01 0.01 0.01 0.01 0.01 0.01 0.00 0.00 0.00 0.00 0.00 0.00 0.00 0.00 0.00 0.00 0.00 0.00 0.00 0.00 0.00 0.00 0.00 0.00 0.00 0.00 0.00 0.00 0.00
0.21 0.17 0.14 0.12 0.08 0.07 0.06 0.04 0.04 0.03 0.02 0.02 0.02 0.01 0.01 0.01 0.01 0.01 0.00 0.00 0.00 0.00 0.00 0.00 0.00 0.00 0.00 0.00 0.00 0.00 0.00 0.00 0.00 0.00 0.00 0.00 0.01 0.01 0.01 0.00 0.00 0.00 0.00
0.21 0.20 0.18 0.15 0.13 0.11 0.09 0.07 0.06 0.04 0.03 0.03 0.02 0.01 0.01 0.01 0.00 0.00 0.00 0.00 0.00 0.00 0.00 0.00 0.00 0.00 0.00 0.00 0.00 0.00 0.00 0.00 0.00 0.00 0.00 0.00 0.01 0.01 0.00 0.00 0.00 0.00 0.00
0.21 0.19 0.18 0.16 0.13 0.10 0.08 0.06 0.05 0.04 0.03 0.02 0.02 0.01 0.01 0.01 0.01 0.00 0.00 0.00 0.00 0.00 0.00 0.00 0.00 0.00 0.00 0.00 0.00 0.00 0.00 0.00 0.00 0.00 0.00 0.01 0.01 0.00 0.00 0.00 0.00 0.00 0.00
0.11 0.10 0.09 0.08 0.07 0.06 0.05 0.04 0.03 0.02 0.02 0.02 0.02 0.02 0.02 0.01 0.01 0.01 0.00 0.00 0.00 0.00 0.00 0.00 0.00 0.00 0.00 0.00 0.00 0.00 0.00 0.00 0.00 0.00 0.00 0.01 0.01 0.00 0.00 0.00 0.00 0.00 0.00
0.07 0.07 0.06 0.05 0.05 0.04 0.04 0.04 0.04 0.04 0.04 0.04 0.03 0.02 0.01 0.00 0.00 0.00 0.00 0.00 0.00 0.00 0.00 0.00 0.00 0.00 0.00 0.00 0.00 0.00 0.00 0.00 0.00 0.00 0.00 0.01 0.01 0.00 0.00 0.00 0.00 0.00 0.00
0.06 0.06 0.05 0.04 0.04 0.03 0.03 0.03 0.02 0.02 0.01 0.01 0.01 0.00 0.00 0.00 0.00 0.00 0.00 0.00 0.00 0.00 0.00 0.00 0.00 0.00 0.00 0.00 0.00 0.00 0.00 0.00 0.00 0.00 0.00 0.00 0.00 0.00 0.00 0.00 0.00 0.00 0.00
0.04 0.03 0.03 0.02 0.02 0.02 0.01 0.01 0.01 0.00 0.00 0.00 0.00 0.00 0.00 0.00 0.00 0.00 0.00 0.00 0.00 0.00 0.00 0.00 0.00 0.00 0.00 0.00 0.00 0.00 0.00 0.00 0.00 0.00 0.00 0.00 0.00 0.00 0.00 0.00 0.00 0.00 0.00
0.03 0.02 0.01 0.01 0.01 0.01 0.01 0.01 0.00 0.00 0.00 0.00 0.00 0.00 0.00 0.00 0.00 0.00 0.00 0.00 0.00 0.00 0.00 0.00 0.00 0.00 0.00 0.00 0.00 0.00 0.00 0.00 0.00 0.00 0.00 0.00 0.00 0.01 0.01 0.00 0.00 0.00 0.00
0.01 0.01 0.01 0.01 0.01 0.01 0.01 0.01 0.00 0.00 0.00 0.00 0.00 0.00 0.00 0.00 0.00 0.00 0.00 0.00 0.00 0.00 0.00 0.00 0.00 0.00 0.00 0.00 0.00 0.00 0.00 0.00 0.00 0.00 0.00 0.00 0.00 0.01 0.01 0.01 0.01 0.00 0.01
0.01 0.01 0.01 0.01 0.01 0.01 0.01 0.00 0.00 0.00 0.01 0.00 0.00 0.01 0.01 0.01 0.01 0.00 0.00 0.00 0.00 0.00 0.00 0.00 0.00 0.00 0.00 0.00 0.00 0.00 0.00 0.00 0.00 0.00 0.00 0.01 0.01 0.01 0.01 0.01 0.01 0.01 0.02
0.01 0.01 0.01 0.01 0.01 0.00 0.00 0.01 0.00 0.00 0.00 0.00 0.01 0.01 0.01 0.01 0.01 0.00 0.00 0.00 0.00 0.00 0.00 0.00 0.00 0.00 0.00 0.00 0.00 0.00 0.00 0.00 0.00 0.00 0.01 0.01 0.01 0.01 0.02 0.01 0.01 0.01 0.02
0.01 0.01 0.01 0.00 0.00 0.00 0.00 0.00 0.00 0.00 0.00 0.00 0.00 0.00 0.01 0.01 0.01 0.00 0.00 0.00 0.00 0.00 0.00 0.00 0.00 0.00 0.00 0.00 0.00 0.00 0.00 0.00 0.01 0.01 0.01 0.01 0.01 0.02 0.02 0.02 0.01 0.01 0.02
MSLP
1009.07 1009.05 1008.99 1008.92 1008.88 1008.90 1009.02 1009.26 1009.62 1010.10 1010.66 1011.25 1011.85 1012.43 1012.94 1013.39 1013.78 1014.12 1014.44 1014.74 1015.05 1015.37 1015.71 1016.06 1016.43 1016.80 1017.18 1017.56 1017.94 1018.32 1018.70 1019.06 1019.40 1019.71 1019.96 1020.16 1020.29 1020.35 1020.34 1020.29 1020.21 1020.11 1020.02
1009.86 1009.77 1009.60 1009.38 1009.16 1009.01 1008.97 1009.08 1009.36 1009.81 1010.39 1011.05 1011.75 1012.42 1013.03 1013.57 1014.03 1014.41 1014.75 1015.07 1015.39 1015.71 1016.06 1016.42 1016.79 1017.16 1017.52 1017.87 1018.22 1018.57 1018.91 1019.25 1019.57 1019.87 1020.14 1020.35 1020.49 1020.55 1020.55 1020.48 1020.35 1020.21 1020.06
1010.80 1010.64 1010.38 1010.03 1009.67 1009.36 1009.17 1009.16 1009.37 1009.78 1010.36 1011.06 1011.82 1012.58 1013.28 1013.89 1014.40 1014.84 1015.21 1015.55 1015.88 1016.21 1016.57 1016.92 1017.28 1017.63 1017.97 1018.28 1018.58 1018.88 1019.17 1019.47 1019.77 1020.06 1020.32 1020.54 1020.70 1020.78 1020.78 1020.70 1020.56 1020.38 1020.19
1011.82 1011.62 1011.29 1010.87 1010.40 1009.98 1009.68 1009.57 1009.70 1010.06 1010.63 1011.35 1012.14 1012.94 1013.69 1014.36 1014.92 1015.39 1015.79 1016.15 1016.49 1016.83 1017.18 1017.53 1017.88 1018.20 1018.49 1018.76 1019.01 1019.25 1019.50 1019.76 1020.04 1020.31 1020.58 1020.81 1020.99 1021.09 1021.11 1021.03 1020.89 1020.69 1020.46
1012.84 1012.64 1012.30 1011.84 1011.33 1010.84 1010.48 1010.31 1010.38 1010.69 1011.23 1011.92 1012.72 1013.53 1014.30 1014.98 1015.57 1016.05 1016.47 1016.84 1017.19 1017.53 1017.87 1018.21 1018.53 1018.82 1019.08 1019.30 1019.50 1019.70 1019.91 1020.14 1020.39 1020.66 1020.94 1021.18 1021.38 1021.51 1021.54 1021.49 1021.35 1021.14 1020.89
1013.81 1013.65 1013.33 1012.90 1012.40 1011.92 1011.54 1011.34 1011.37 1011.64 1012.13 1012.79 1013.55 1014.33 1015.08 1015.76 1016.33 1016.82 1017.23 1017.60 1017.94 1018.27 1018.60 1018.91 1019.20 1019.46 1019.68 1019.87 1020.04 1020.21 1020.38 1020.59 1020.83 1021.10 1021.38 1021.64 1021.86 1022.00 1022.06 1022.02 1021.89 1021.68 1021.41
1014.68 1014.58 1014.34 1013.98 1013.55 1013.12 1012.78 1012.59 1012.61 1012.86 1013.30 1013.91 1014.60 1015.33 1016.03 1016.65 1017.20 1017.65 1018.04 1018.39 1018.71 1019.02 1019.33 1019.62 1019.88 1020.12 1020.31 1020.47 1020.61 1020.75 1020.91 1021.10 1021.33 1021.59 1021.86 1022.13 1022.35 1022.51 1022.58 1022.55 1022.43 1022.23 1021.96
1015.42 1015.41 1015.28 1015.03 1014.71 1014.38 1014.11 1013.97 1014.01 1014.24 1014.65 1015.19 1015.82 1016.47 1017.09 1017.65 1018.13 1018.54 1018.89 1019.21 1019.50 1019.79 1020.06 1020.33 1020.57 1020.77 1020.94 1021.08 1021.20 1021.32 1021.46 1021.63 1021.84 1022.08 1022.34 1022.58 1022.80 1022.95 1023.02 1023.00 1022.89 1022.69 1022.43
1016.05 1016.15 1016.13 1016.02 1015.83 1015.62 1015.46 1015.39 1015.48 1015.71 1016.09 1016.58 1017.13 1017.69 1018.23 1018.71 1019.12 1019.47 1019.77 1020.04 1020.30 1020.55 1020.80 1021.04 1021.25 1021.44 1021.58 1021.70 1021.80 1021.90 1022.01 1022.16 1022.33 1022.53 1022.74 1022.95 1023.13 1023.26 1023.31 1023.29 1023.19 1023.01 1022.77
1016.62 1016.81 1016.91 1016.92 1016.87 1016.79 1016.74 1016.77 1016.91 1017.17 1017.53 1017.97 1018.46 1018.94 1019.39 1019.78 1020.12 1020.40 1020.65 1020.88 1021.10 1021.32 1021.54 1021.76 1021.95 1022.11 1022.24 1022.34 1022.42 1022.49 1022.57 1022.66 1022.77 1022.91 1023.06 1023.21 1023.33 1023.41 1023.43 1023.40 1023.30 1023.15 1022.93
1017.18 1017.44 1017.64 1017.75 1017.81 1017.86 1017.93 1018.05 1018.26 1018.55 1018.91 1019.32 1019.75 1020.15 1020.52 1020.84 1021.10 1021.32 1021.51 1021.70 1021.89 1022.08 1022.28 1022.48 1022.65 1022.80 1022.92 1022.99 1023.04 1023.07 1023.10 1023.13 1023.17 1023.23 1023.29 1023.35 1023.39 1023.41 1023.40 1023.35 1023.26 1023.12 1022.95
1017.77 1018.09 1018.34 1018.54 1018.69 1018.84 1019.00 1019.21 1019.48 1019.81 1020.18 1020.57 1020.95 1021.29 1021.59 1021.83 1022.03 1022.19 1022.33 1022.48 1022.64 1022.82 1023.00 1023.19 1023.35 1023.49 1023.58 1023.64 1023.65 1023.64 1023.60 1023.56 1023.52 1023.48 1023.44 1023.41 1023.37 1023.33 1023.27 1023.19 1023.10 1022.99 1022.84
1018.44 1018.78 1019.07 1019.30 1019.52 1019.73 1019.97 1020.25 1020.57 1020.94 1021.32 1021.69 1022.04 1022.33 1022.56 1022.74 1022.88 1022.98 1023.09 1023.21 1023.34 1023.50 1023.68 1023.86 1024.01 1024.14 1024.22 1024.25 1024.23 1024.17 1024.07 1023.96 1023.83 1023.69 1023.56 1023.44 1023.31 1023.20 1023.09 1022.99 1022.89 1022.79 1022.67
1019.19 1019.53 1019.81 1020.06 1020.31 1020.56 1020.85 1021.18 1021.54 1021.93 1022.32 1022.68 1022.99 1023.24 1023.41 1023.53 1023.61 1023.68 1023.75 1023.84 1023.96 1024.11 1024.28 1024.45 1024.60 1024.72 1024.79 1024.79 1024.74 1024.64 1024.49 1024.31 1024.10 1023.89 1023.67 1023.46 1023.26 1023.08 1022.93 1022.79 1022.68 1022.57 1022.46
1020.00 1020.32 1020.58 1020.83 1021.07 1021.34 1021.65 1022.01 1022.40 1022.80 1023.19 1023.53 1023.80 1024.00 1024.13 1024.20 1024.23 1024.25 1024.29 1024.36 1024.47 1024.61 1024.77 1024.94 1025.09 1025.20 1025.25 1025.24 1025.16 1025.02 1024.83 1024.59 1024.33 1024.05 1023.77 1023.49 1023.23 1023.00 1022.79 1022.62 1022.48 1022.35 1022.22
1020.83 1021.12 1021.36 1021.57 1021.81 1022.08 1022.40 1022.77 1023.16 1023.56 1023.92 1024.24 1024.47 1024.62 1024.70 1024.72 1024.71 1024.70 1024.72 1024.77 1024.86 1025.00 1025.16 1025.32 1025.46 1025.56 1025.60 1025.57 1025.47 1025.30 1025.07 1024.80 1024.50 1024.18 1023.85 1023.53 1023.22 1022.94 1022.68 1022.47 1022.28 1022.11 1021.94
1021.63 1021.89 1022.10 1022.30 1022.51 1022.77 1023.09 1023.45 1023.83 1024.20 1024.54 1024.81 1025.00 1025.11 1025.14 1025.12 1025.08 1025.04 1025.03 1025.07 1025.15 1025.28 1025.43 1025.58 1025.71 1025.80 1025.82 1025.77 1025.65 1025.47 1025.22 1024.93 1024.60 1024.26 1023.90 1023.55 1023.20 1022.88 1022.58 1022.31 1022.06 1021.83 1021.61
1022.38 1022.61 1022.80 1022.98 1023.17 1023.42 1023.71 1024.05 1024.40 1024.74 1025.04 1025.26 1025.40 1025.46 1025.45 1025.40 1025.33 1025.28 1025.26 1025.29 1025.37 1025.49 1025.63 1025.77 1025.88 1025.94 1025.94 1025.87 1025.74 1025.53 1025.28 1024.98 1024.64 1024.29 1023.91 1023.54 1023.16 1022.80 1022.45 1022.12 1021.81 1021.51 1021.22
1023.04 1023.26 1023.43 1023.60 1023.78 1024.01 1024.28 1024.58 1024.89 1025.18 1025.42 1025.59 1025.68 1025.70 1025.66 1025.59 1025.51 1025.45 1025.44 1025.47 1025.55 1025.66 1025.79 1025.90 1025.99 1026.02 1026.00 1025.91 1025.75 1025.53 1025.27 1024.96 1024.62 1024.26 1023.88 1023.49 1023.09 1022.68 1022.28 1021.89 1021.52 1021.15 1020.79
1023.61 1023.82 1023.99 1024.15 1024.32 1024.52 1024.76 1025.02 1025.28 1025.51 1025.69 1025.81 1025.86 1025.85 1025.79 1025.71 1025.64 1025.60 1025.59 1025.64 1025.72 1025.83 1025.94 1026.04 1026.09 1026.09 1026.03 1025.91 1025.73 1025.50 1025.22 1024.91 1024.56 1024.20 1023.80 1023.40 1022.97 1022.53 1022.08 1021.64 1021.20 1020.77 1020.36
1024.10 1024.31 1024.48 1024.63 1024.79 1024.96 1025.16 1025.37 1025.57 1025.74 1025.87 1025.93 1025.95 1025.91 1025.85 1025.79 1025.74 1025.72 1025.75 1025.82 1025.92 1026.02 1026.12 1026.19 1026.21 1026.18 1026.08 1025.92 1025.71 1025.45 1025.16 1024.84 1024.48 1024.11 1023.71 1023.28 1022.82 1022.35 1021.86 1021.37 1020.89 1020.42 1019.97
1024.51 1024.72 1024.89 1025.03 1025.17 1025.31 1025.47 1025.62 1025.76 1025.87 1025.94 1025.97 1025.96 1025.92 1025.87 1025.84 1025.83 1025.86 1025.92 1026.02 1026.14 1026.24 1026.33 1026.37 1026.36 1026.28 1026.14 1025.94 1025.70 1025.42 1025.10 1024.76 1024.40 1024.01 1023.59 1023.14 1022.67 1022.16 1021.65 1021.12 1020.61 1020.12 1019.66
1024.85 1025.05 1025.21 1025.33 1025.44 1025.55 1025.66 1025.76 1025.84 1025.89 1025.92 1025.92 1025.90 1025.88 1025.87 1025.88 1025.92 1026.00 1026.11 1026.24 1026.38 1026.49 1026.56 1026.57 1026.52 1026.40 1026.22 1025.98 1025.70 1025.38 1025.05 1024.69 1024.31 1023.91 1023.48 1023.01 1022.52 1022.00 1021.46 1020.92 1020.40 1019.90 1019.45
1025.11 1025.30 1025.44 1025.54 1025.62 1025.69 1025.74 1025.79 1025.82 1025.83 1025.83 1025.82 1025.81 1025.82 1025.85 1025.91 1026.02 1026.15 1026.31 1026.48 1026.63 1026.73 1026.79 1026.77 1026.68 1026.51 1026.29 1026.01 1025.69 1025.35 1024.99 1024.61 1024.22 1023.81 1023.37 1022.90 1022.40 1021.87 1021.33 1020.79 1020.27 1019.78 1019.35
1025.29 1025.45 1025.56 1025.63 1025.68 1025.71 1025.72 1025.72 1025.72 1025.71 1025.70 1025.69 1025.71 1025.76 1025.84 1025.97 1026.13 1026.32 1026.52 1026.71 1026.87 1026.96 1027.00 1026.94 1026.81 1026.60 1026.32 1026.01 1025.66 1025.29 1024.91 1024.53 1024.13 1023.71 1023.27 1022.81 1022.31 1021.79 1021.26 1020.73 1020.23 1019.76 1019.35
1025.38 1025.51 1025.59 1025.63 1025.64 1025.64 1025.62 1025.59 1025.57 1025.55 1025.55 1025.57 1025.63 1025.72 1025.86 1026.05 1026.26 1026.50 1026.73 1026.93 1027.08 1027.17 1027.16 1027.07 1026.89 1026.64 1026.32 1025.97 1025.60 1025.21 1024.82 1024.43 1024.04 1023.63 1023.20 1022.75 1022.28 1021.78 1021.27 1020.76 1020.28 1019.83 1019.43
Thickness
5790 5796 5799 5799 5796 5794 5792 5788 5786 5782 5777 5771 5763 5757 5752 5749 5745 5741 5738 5734 5729 5725 5722 5718 5714 5710 5707 5703 5699 5695 5691 5686 5683 5679 5675 5673 5672 5670 5667 5665 5663 5660 5658
5780 5785 5788 5788 5786 5784 5785 5784 5781 5777 5773 5769 5762 5754 5748 5740 5735 5732 5727 5724 5720 5716 5712 5709 5705 5701 5697 5693 5691 5688 5683 5679 5676 5672 5666 5662 5661 5661 5660 5657 5655 5652 5649
5766 5770 5774 5776 5778 5776 5775 5776 5772 5770 5766 5762 5755 5746 5738 5731 5724 5719 5715 5712 5710 5707 5704 5700 5697 5692 5688 5684 5681 5679 5676 5671 5667 5664 5661 5655 5651 5649 5649 5647 5645 5642 5639
5755 5759 5762 5763 5765 5766 5767 5767 5765 5763 5759 5755 5748 5741 5731 5722 5716 5710 5705 5701 5698 5694 5692 5689 5686 5682 5677 5673 5671 5668 5666 5663 5658 5654 5651 5647 5644 5639 5636 5634 5633 5631 5628
5742 5745 5748 5750 5752 5755 5756 5755 5754 5751 5748 5744 5737 5730 5722 5714 5707 5700 5694 5689 5686 5682 5679 5676 5673 5669 5665 5662 5659 5657 5654 5651 5647 5643 5639 5635 5631 5628 5625 5621 5619 5617 5615
5726 5729 5732 5735 5737 5739 5740 5740 5739 5737 5735 5730 5724 5719 5711 5703 5695 5689 5683 5677 5672 5669 5666 5661 5659 5655 5652 5649 5646 5643 5640 5637 5633 5629 5626 5622 5618 5613 5610 5606 5602 5600 5600
5710 5713 5716 5718 5720 5721 5722 5722 5721 5719 5717 5714 5709 5703 5698 5690 5684 5676 5670 5664 5658 5655 5652 5648 5645 5642 5639 5636 5632 5628 5625 5621 5618 5614 5610 5607 5602 5599 5595 5590 5586 5583 5582
5694 5696 5699 5701 5702 5704 5704 5704 5703 5701 5699 5697 5692 5687 5682 5676 5669 5662 5655 5650 5645 5641 5637 5634 5631 5627 5624 5620 5617 5613 5609 5605 5602 5598 5594 5590 5586 5582 5579 5574 5570 5565 5562
5679 5680 5682 5684 5685 5686 5686 5686 5685 5682 5680 5677 5673 5668 5664 5659 5652 5647 5641 5636 5632 5628 5624 5620 5616 5612 5608 5604 5601 5597 5592 5588 5585 5582 5578 5573 5569 5565 5562 5557 5554 5548 5543
5664 5665 5665 5666 5667 5667 5667 5666 5665 5663 5661 5659 5656 5650 5646 5641 5636 5631 5626 5622 5617 5614 5610 5604 5600 5594 5591 5587 5583 5579 5575 5571 5567 5564 5560 5555 5551 5548 5544 5540 5535 5531 5526
5648 5648 5648 5648 5649 5649 5650 5649 5646 5645 5642 5639 5636 5632 5628 5624 5620 5615 5610 5606 5602 5597 5592 5587 5583 5578 5573 5568 5564 5561 5557 5553 5549 5545 5541 5537 5534 5530 5526 5522 5518 5514 5510
5635 5634 5634 5634 5633 5633 5632 5630 5628 5626 5623 5621 5618 5614 5610 5607 5603 5598 5593 5590 5585 5579 5575 5571 5565 5559 5554 5549 5545 5542 5538 5534 5530 5526 5523 5520 5517 5512 5509 5505 5501 5497 5494
5621 5619 5619 5618 5618 5617 5614 5612 5610 5608 5606 5603 5600 5597 5593 5589 5585 5581 5577 5573 5568 5563 5558 5553 5546 5540 5535 5530 5526 5523 5519 5515 5511 5508 5505 5502 5499 5495 5492 5489 5485 5481 5479
5609 5606 5603 5601 5600 5599 5598 5596 5594 5592 5589 5586 5583 5579 5575 5572 5569 5565 5560 5556 5551 5546 5540 5534 5528 5523 5518 5513 5508 5505 5501 5497 5494 5491 5489 5486 5483 5480 5477 5474 5470 5466 5463
5597 5594 5590 5586 5585 5584 5582 5581 5579 5577 5574 5571 5567 5562 5559 5555 5552 5548 5543 5539 5534 5529 5523 5517 5511 5506 5501 5496 5491 5487 5483 5479 5477 5475 5473 5471 5469 5467 5463 5460 5456 5452 5449
5586 5582 5578 5574 5572 5571 5568 5566 5564 5561 5559 5555 5551 5548 5544 5540 5535 5531 5526 5521 5516 5511 5506 5500 5494 5489 5484 5478 5474 5470 5466 5463 5460 5458 5457 5456 5454 5451 5448 5445 5443 5441 5438
5574 5570 5566 5563 5560 5557 5555 5553 5550 5548 5544 5541 5537 5533 5529 5524 5520 5516 5510 5505 5500 5495 5489 5484 5478 5472 5467 5462 5458 5455 5451 5447 5445 5444 5441 5441 5440 5436 5433 5431 5431 5430 5430
5561 5557 5553 5549 5547 5545 5543 5540 5537 5533 5530 5526 5522 5519 5515 5511 5506 5501 5495 5490 5485 5480 5475 5469 5463 5457 5452 5448 5444 5440 5436 5433 5431 5430 5429 5427 5426 5424 5422 5420 5420 5420 5422
5549 5545 5541 5538 5535 5532 5530 5527 5523 5520 5516 5512 5508 5505 5501 5496 5491 5486 5480 5476 5471 5466 5461 5456 5450 5443 5438 5434 5430 5426 5422 5420 5419 5419 5418 5417 5416 5415 5413 5412 5412 5413 5416
5537 5533 5529 5527 5524 5520 5518 5515 5511 5507 5503 5500 5497 5493 5488 5483 5478 5473 5467 5462 5457 5452 5447 5442 5436 5431 5426 5421 5418 5414 5411 5408 5408 5408 5409 5409 5409 5409 5409 5408 5408 5409 5413
5526 5523 5519 5516 5513 5511 5508 5504 5500 5496 5494 5491 5487 5482 5477 5471 5466 5461 5455 5449 5444 5439 5434 5429 5424 5418 5414 5410 5407 5404 5401 5399 5399 5400 5401 5404 5405 5407 5409 5409 5409 5411 5413
5517 5514 5509 5506 5504 5502 5498 5494 5490 5488 5485 5481 5477 5472 5466 5462 5457 5450 5444 5438 5432 5426 5421 5416 5411 5407 5403 5400 5397 5395 5394 5394 5393 5395 5397 5400 5404 5407 5409 5411 5413 5414 5416
5508 5505 5501 5498 5495 5493 5490 5486 5483 5481 5477 5472 5467 5462 5458 5452 5447 5440 5433 5427 5421 5415 5409 5405 5400 5397 5394 5392 5390 5390 5390 5390 5391 5393 5397 5401 5404 5408 5411 5413 5415 5417 5417
5501 5497 5494 5490 5487 5485 5483 5480 5477 5474 5469 5464 5459 5454 5449 5443 5437 5432 5426 5419 5413 5407 5402 5397 5393 5390 5388 5386 5386 5386 5387 5389 5391 5394 5398 5402 5406 5409 5412 5414 5417 5418 5419
5494 5490 5487 5483 5481 5479 5476 5474 5471 5467 5462 5457 5453 5448 5443 5437 5430 5424 5418 5413 5408 5403 5398 5393 5389 5386 5385 5385 5385 5384 5387 5389 5391 5395 5398 5402 5405 5409 5412 5415 5417 5419 5420
5489 5485 5482 5479 5476 5474 5471 5469 5466 5462 5457 5452 5447 5442 5437 5431 5425 5418 5412 5409 5405 5402 5398 5394 5390 5388 5387 5386 5387 5388 5390 5393 5395 5397 5399 5401 5404 5408 5411 5414 5417 5419 5420